STARLINK-6132, 57101

Orbit data source: Space-Track

STARLINK-6132, 57101 is a payload satellite owned by SpaceX/Seattle (US) in LEO that was launched on Fri, 23 Jun 2023 UTC via an FALCON 9 launch vehicle from the Air Force Eastern Test Range (AFETR). Payload-class satellites include a variety of spacecraft equipped with specific instruments for various scientific and technological missions. These include communications satellites like Starlink; space stations such as the ISS; scientific satellites like the Hubble; Earth observation satellites from companies like Planet Labs, Umbra, and HawkEye 360; GPS; miniature CubeSats for education and research; and military/defense satellites.

Loading next visibility...
Identifier
57101, 2023-090A
Orbit
LEO
Last TLE update
1 day ago
Origin
Manufacturer
SpaceX/Seattle
Mission
Operational Commercial Communications
Bus & Motor
STARLINK, Unknown motor
Mass
305 kg wet, ~290 kg dry
Launch date (UTC)
2023-06-23 (2 years ago)
Launch vehicle
FALCON 9
Launch site
Air Force Eastern Test Range (AFETR)
Object type
Payload
Rocket body
Debris
Shape & HBR
Box + 1 Pan, 9 m
Radar Cross Section
11.087 m², Large (>1 m²)

Expand to show TLE details & history

TLE from 1 day ago
0 STARLINK-6132
1 57101U 23090A   25187.42050998  .00000584  00000-0  58289-4 0  9991
2 57101  43.0026 173.1929 0001105 272.3721  87.6994 15.02529168113360
Epoch: 2025-07-06T10:05Z
TLE epoch observation values (Epoch: 2025-07-06T10:05:32.062Z)
Latitude
-0.00007°
Longitude
97.16478°
Altitude
558.848 km
Speed
7.584 km/s
True Right ascension
11h 32m 46s
True Declination
0° 00' 00"
Sunlit
Object was in daylight at epoch
Visualization orbit readout
Latitude
-28.63224°
Longitude
-52.87502°
Altitude
566.155 km
Speed
7.579 km/s
Apparent Right ascension
05h 06m 18s
Apparent Declination
-63° 22' 48"
Sunlit
Object is in daylight
Visualization observer readout
Local Sidereal Time
23:03:17
Azimuth
146.694° SSE
Elevation
-35.322°
Doppler factor
1
Orbital elements
Apogee altitude
561.791 km
Perigee altitude
560.257 km
Semi-major axis
6,939.161 km
Eccentricity
0.00011
Inclination
43.0026°
RAAN
173.1929°
Arg. of periapsis
272.3721°
True anomaly
Unknown
Mean anomaly
87.6994°
Eccentric anomaly
Unknown
Mean motion
3.75476 °/min
Orbital period
95.88 mins
BSTAR
0.000058289
Loading maneuver chart data...
Loading SW <> Apogee altitude chart data...
Loading historical data...
Loading historical data...
Loading historical data...
Loading historical data...
Loading historical data...
Loading historical data...
Loading historical data...

STARLINK-6132 Visibility forecast

Observer location: undefined°, undefined°

Span
Click to sort rows by Start time (UTC) header in descending order
Start Az.
Max El. time (UTC)
Max El. Az.
Max El.
End time (UTC)
End Az.
6 mins2025-07-08 02:12:05.634Z223.528° SW2025-07-08 02:15:05.634Z144.967° SSE37.877°2025-07-08 02:18:05.634Z81.039° E
6 mins2025-07-08 03:53:05.634Z274.14° WNW2025-07-08 03:56:05.634Z26.646° NE40.206°2025-07-08 03:59:05.634Z70.492° E
6 mins2025-07-08 05:34:05.634Z293.74° NW2025-07-08 05:36:05.634Z333.433° NNW39.718°2025-07-08 05:40:05.634Z88.259° E
6 mins2025-07-08 07:15:05.634Z274.068° WNW2025-07-08 07:17:05.634Z218.1° SW39.232°2025-07-08 07:21:05.634Z129.214° SE
|